Flag for Germany Weather past 2 weeks in Coesfeld, North Rhine-Westphalia, Germany

Now
41 °F

Quite cool.


Feels Like: 33 °F
Forecast: 35 / 47 °F
Wind: 14 mph from West

Location: Rheine-Bentlage

Current Time: Mar 4, 2015 at 11:45:46 PM

Latest Report: Mar 4, 2015 at 10:20 PM


Visibility: N/A

Pressure: 30.39 "Hg

Humidity: 76%

Dew point: 34 °F

Location of CoesfeldLocation

Historic Weather in Coesfeld — Graph

°F

Coesfeld temperature yesterday

Maximum temperature yesterday: 41 °F (at 10:20 AM)
Minimum temperature yesterday: 36 °F (at 12:20 AM)
Average temperature yesterday: 38 °F

Past Weeks' High & Low Weather Summary

 TemperatureHumidityPressure
High52 °F (Mar 1, 12:20 PM)100% (Feb 17, 11:20 PM)30.74 "Hg (Feb 17, 11:20 PM)
Low28 °F (Feb 17, 11:20 PM)50% (Feb 28, 4:20 PM)29.30 "Hg (Feb 21, 5:20 AM)
Average39 °F83%29.87 "Hg
* Reported Feb 17 10:20 PM — Mar 4 10:20 PM, Coesfeld, Weather by CustomWeather, © 2015

Note: Actual official high and low records may vary slightly from our data, if they occured in-between our weather recording intervals... More about our weather records

Advertising

Coesfeld weather history for previous 24 hours

 ConditionsComfort  
Time TempWeatherWind HumidityBarometerVisibility
10:20 PM
Wed, Mar 4
41 °FQuite cool.14 mph76%30.39 "HgN/A
9:20 PM41 °FQuite cool.12 mph81%30.33 "HgN/A
8:20 PM41 °FQuite cool.14 mph87%30.30 "HgN/A
7:20 PM39 °FChilly.12 mph93%30.27 "HgN/A
6:20 PM39 °FChilly.13 mph87%30.24 "HgN/A
5:20 PM39 °FChilly.14 mph87%30.24 "HgN/A
4:20 PM45 °FQuite cool.20 mph66%30.18 "HgN/A
3:20 PM45 °FScattered showers. Partly sunny.15 mph71%30.18 "HgN/A
2:20 PM43 °FSprinkles. Broken clouds.14 mph71%30.18 "HgN/A
1:20 PM41 °FPartly sunny.12 mph81%30.18 "HgN/A
12:20 PM41 °FBroken clouds.10 mph76%30.18 "HgN/A
11:20 AM41 °FPartly sunny.12 mph76%30.15 "HgN/A
10:20 AM39 °FPartly sunny.10 mph81%30.15 "HgN/A
9:20 AM37 °FPartly sunny.9 mph87%30.12 "HgN/A
8:20 AM37 °FPartly sunny.10 mph81%30.12 "HgN/A
7:20 AM36 °FPartly sunny.9 mph87%30.09 "HgN/A
6:20 AM36 °FPassing clouds.9 mph87%30.09 "HgN/A
5:20 AM36 °FChilly.9 mph87%30.07 "HgN/A
4:20 AM36 °FChilly.9 mph87%30.07 "HgN/A
3:20 AM34 °FChilly.7 mph93%30.07 "HgN/A
2:20 AM36 °FChilly.8 mph81%30.07 "HgN/A
1:20 AM36 °FChilly.8 mph81%30.04 "HgN/A
12:20 AM36 °FChilly.6 mph81%30.04 "HgN/A
11:20 PM
Tue, Mar 3
36 °FChilly.5 mph87%30.01 "HgN/A
Weather by CustomWeather, © 2015

See weather overviewHow to use our weather pages